Roswell, NM

8:03 AM MST on January 20, 2018 (GMT -0700)
Roswell Industrial

Weather History for KROW - July, 2013

Change the Weather History Date:

Wednesday, July 3, 2013

  Actual Average Record
Temperature  
Mean Temperature 77 °F 80 °F  
Max Temperature 89 °F 95 °F 108 °F (2005)
Min Temperature 64 °F 67 °F 55 °F (1924)
Degree Days  
Heating Degree Days 0 0  
Month to date heating degree days 0 0  
Since 1 June heating degree days 0 1  
Since 1 July heating degree days 0 0  
Cooling Degree Days 12 16  
Month to date cooling degree days 27 46  
Year to date cooling degree days 900 668  
Since 1 June cooling degree days 577 443  
Growing Degree Days 26 (Base 50)    
Moisture  
Dew Point 56 °F    
Average Humidity 60    
Maximum Humidity 93    
Minimum Humidity 26    
Precipitation  
Precipitation 0.00 in 0.07 in 0.60 in (1900)
Month to date precipitation 1.04 0.23  
Year to date precipitation 2.63 5.13  
Sea Level Pressure  
Sea Level Pressure 29.87 in    
Wind  
Wind Speed 8 mph (South)    
Max Wind Speed 20 mph    
Max Gust Speed 29 mph    
Visibility 9 miles    
Events      
T = Trace of Precipitation, MM = Missing Value Source: NWS Daily Summary

Daily Weather History Graph

Daily Weather History Graph

Search for Another Location

Airport or City:

Trip Planner

Search our weather history database for the weather conditions in past years. The results will help you decide how hot, cold, wet, or windy it might be!

Date:

Astronomy

Jul. 03, 2013 Rise Set
Actual Time 5:53 AM MDT 8:11 PM MDT
Civil Twilight 5:24 AM MDT 8:40 PM MDT
Nautical Twilight 4:49 AM MDT 9:15 PM MDT
Astronomical Twilight 4:11 AM MDT 9:53 PM MDT
Moon 2:27 AM MDT (7/3) 4:28 PM MDT (7/3)
Length of Visible Light 15h 15m
Length of Day
14h 17m
Waning Crescent, 18% of the Moon is Illuminated
Jul 3
Waning Crescent
Jul 8
New
Jul 15
First Quarter
Jul 22
Full
Jul 29
Last Quarter

Hourly Weather History & Observations

Time (MDT) Temp. Heat Index Dew Point Humidity Pressure Visibility Wind Dir Wind Speed Gust Speed Precip Events Conditions
12:51 AM 70.0 °F - 61.0 °F 73% 29.98 in 10.0 mi Calm Calm - N/A   Clear
1:51 AM 69.1 °F - 62.1 °F 78% 29.97 in 10.0 mi Calm Calm - N/A   Clear
2:51 AM 66.9 °F - 63.0 °F 87% 29.96 in 8.0 mi Calm Calm - N/A   Clear
3:51 AM 66.9 °F - 62.1 °F 84% 29.95 in 7.0 mi Calm Calm - N/A   Clear
4:51 AM 64.9 °F - 62.1 °F 90% 29.93 in 5.0 mi Calm Calm - N/A   Clear
5:51 AM 64.9 °F - 62.1 °F 90% 29.94 in 5.0 mi North 3.5 mph - N/A   Clear
6:51 AM 66.0 °F - 61.0 °F 84% 29.95 in 6.0 mi East 3.5 mph - N/A   Haze
7:51 AM 68.0 °F - 57.0 °F 68% 29.97 in 9.0 mi SSE 5.8 mph - N/A   Clear
8:51 AM 72.0 °F - 57.0 °F 59% 29.96 in 10.0 mi SSE 10.4 mph - N/A   Clear
9:51 AM 75.0 °F - 55.9 °F 51% 29.95 in 10.0 mi SSE 9.2 mph - N/A   Clear
10:51 AM 77.0 °F - 53.1 °F 43% 29.93 in 10.0 mi South 13.8 mph 19.6 mph N/A   Clear
11:51 AM 80.1 °F 80.1 °F 55.0 °F 42% 29.90 in 10.0 mi South 13.8 mph 20.7 mph N/A   Clear
12:51 PM 82.9 °F 82.1 °F 55.9 °F 39% 29.88 in 10.0 mi South 16.1 mph - N/A   Clear
1:51 PM 84.9 °F 83.2 °F 53.1 °F 33% 29.84 in 10.0 mi South 12.7 mph 19.6 mph N/A   Clear
2:51 PM 86.0 °F - 51.1 °F 30% 29.82 in 10.0 mi South 10.4 mph - N/A   Clear
3:51 PM 89.1 °F - 50.0 °F 26% 29.78 in 10.0 mi South 15.0 mph 24.2 mph N/A   Clear
4:51 PM 88.0 °F - 50.0 °F 27% 29.76 in 10.0 mi SSE 15.0 mph 19.6 mph N/A   Clear
5:51 PM 88.0 °F 85.7 °F 53.1 °F 30% 29.75 in 10.0 mi WSW 12.7 mph - N/A   Clear
6:10 PM 87.8 °F 85.7 °F 53.6 °F 31% 29.94 in 10.0 mi WSW 12.7 mph - N/A   Clear
6:51 PM 84.9 °F 83.6 °F 55.0 °F 36% 29.75 in 10.0 mi West 13.8 mph - N/A   Clear
7:51 PM 82.9 °F 82.1 °F 55.9 °F 39% 29.75 in 10.0 mi WSW 6.9 mph - N/A   Clear
8:51 PM 81.0 °F 81.1 °F 57.9 °F 45% 29.76 in 10.0 mi WSW 3.5 mph - N/A   Clear
9:51 PM 77.0 °F - 62.1 °F 60% 29.81 in 10.0 mi SSE 3.5 mph - N/A   Clear
10:51 PM 75.0 °F - 55.9 °F 51% 29.82 in 10.0 mi SSE 9.2 mph - N/A   Clear
11:51 PM 73.0 °F - 48.9 °F 42% 29.81 in 10.0 mi SSE 10.4 mph - N/A   Clear